EHI
0 0 0 0 0 0 0 0 0 0 0 0 0 0 0 0 0 0 0 0 0 1 1 1 1 1 2 7 12 17 18 17 17 17 16 12 6 4 4 5 5 5 4
0 0 0 0 0 0 0 0 0 0 0 0 0 0 0 0 0 0 0 0 0 1 2 1 1 1 2 5 9 13 18 22 25 28 30 26 18 13 12 12 10 8 6
0 0 0 0 0 0 0 0 0 0 0 0 0 0 0 0 0 0 0 0 0 1 1 1 0 0 1 2 4 8 14 20 26 33 39 41 36 31 28 24 20 14 10
0 0 0 0 0 0 0 0 0 0 0 0 0 0 0 0 1 1 0 0 0 1 1 0 0 0 0 0 1 4 7 12 18 26 35 40 44 46 44 39 31 24 19
0 0 0 0 0 0 0 0 0 0 0 0 0 0 0 0 1 1 0 0 1 2 2 1 1 0 0 0 0 1 3 6 11 17 24 30 39 48 52 50 43 36 32
0 0 0 0 0 0 0 0 0 0 0 0 0 0 0 0 0 0 0 0 1 2 1 1 1 0 0 0 0 0 1 2 5 9 13 20 29 39 46 51 51 47 45
0 0 0 0 0 0 0 0 0 0 0 0 0 0 0 0 0 0 0 0 1 1 0 1 1 0 0 0 0 0 0 0 1 3 5 10 18 25 33 41 49 52 50
0 0 0 0 0 0 0 0 0 0 0 0 0 0 0 0 0 0 0 0 0 0 0 0 0 0 0 0 0 0 0 0 0 0 1 4 8 13 18 27 37 44 44
0 0 0 0 0 0 0 0 0 0 0 0 0 0 0 0 0 0 0 0 0 0 0 0 0 0 0 0 0 0 0 0 0 0 0 1 2 4 8 13 21 27 28
0 0 0 0 0 0 0 0 0 0 0 0 0 0 0 0 0 0 0 0 0 0 0 0 0 0 0 0 0 0 0 0 0 0 0 0 0 0 2 4 9 12 13
0 0 0 0 0 0 0 0 0 0 0 0 0 0 0 0 0 0 0 0 0 0 0 0 0 0 0 0 0 0 0 0 0 0 0 0 0 0 0 1 3 4 4
0 0 0 0 0 0 0 0 0 0 0 0 0 0 0 0 0 0 0 0 0 0 0 0 0 0 0 0 0 0 0 0 0 0 0 0 0 0 0 0 1 1 0
0 0 0 0 0 0 0 0 0 0 0 0 0 0 0 0 0 0 0 0 0 0 0 0 0 0 0 0 0 0 0 0 0 0 0 0 0 0 0 0 0 0 0
0 0 0 0 0 0 0 0 0 0 0 0 0 0 0 0 0 0 0 0 0 0 0 0 0 0 0 0 0 0 0 0 0 0 0 0 0 0 0 0 0 0 0
0 0 0 0 0 0 0 0 0 0 0 0 0 0 0 0 0 0 0 0 0 0 0 0 0 0 0 0 0 0 0 0 0 0 0 0 0 0 0 0 0 0 0
0 0 0 0 0 0 0 0 0 0 0 0 0 0 0 0 0 0 0 0 0 0 0 0 0 0 0 0 0 0 0 0 0 0 0 0 0 0 0 0 0 0 0
0 0 0 0 0 0 0 0 0 0 0 0 0 0 0 0 0 0 0 0 0 0 0 0 0 0 0 0 0 0 0 0 0 0 0 0 0 0 0 0 0 0 0
0 0 0 0 0 0 0 0 0 0 0 0 0 0 0 0 0 0 0 0 0 0 0 0 0 0 0 0 0 0 0 0 0 0 0 0 0 0 0 0 0 0 0
0 0 0 0 0 0 0 0 0 0 0 0 0 0 0 0 0 0 0 0 0 0 0 0 0 0 0 0 0 0 0 0 0 0 0 0 0 0 0 0 0 0 0
0 0 0 0 0 0 0 0 0 0 0 0 0 0 0 0 0 0 0 0 0 0 0 0 0 0 0 0 0 0 0 0 0 0 0 0 0 0 0 0 0 0 0
0 0 0 0 0 0 0 0 0 0 0 0 0 0 0 0 0 0 0 0 0 0 0 0 0 0 0 0 0 0 0 0 0 0 0 0 0 0 0 0 0 0 0
0 0 0 0 0 0 0 0 0 0 0 0 0 0 0 0 0 0 0 0 0 0 0 0 0 0 0 0 0 0 0 0 0 0 0 0 0 0 0 0 0 0 0
0 0 0 0 0 0 0 0 0 0 0 0 0 0 0 0 0 0 0 0 0 0 0 0 0 0 0 0 0 0 0 0 0 0 0 0 0 0 0 0 0 0 0
0 0 0 0 0 0 0 0 0 0 0 0 0 0 0 0 0 0 0 0 0 0 0 0 0 0 0 0 0 0 0 0 0 0 0 0 0 0 0 0 0 0 0
0 0 0 0 0 0 0 0 0 0 0 0 0 0 0 0 0 0 0 0 0 0 0 0 0 0 0 0 0 0 0 0 0 0 0 0 0 0 0 0 0 0 0
0 0 0 0 0 0 0 0 0 0 0 0 0 0 0 0 0 0 0 0 0 0 0 0 0 0 0 0 0 0 0 0 0 0 0 0 0 0 0 0 0 0 0
Wind_Speed
2 1 1 1 3 2 3 3 4 3 5 6 5 6 6 6 6 6 2 7 4 3 3 2 2 3 4 5 5 6 8 9 10 10 10 10 11 11 11 10 10 10 10
1 1 1 1 2 2 3 4 3 4 4 5 6 5 7 7 5 6 7 3 6 4 2 3 3 4 5 6 6 7 7 8 9 10 11 11 11 12 12 12 12 12 11
1 1 1 1 2 2 1 3 3 4 4 5 6 6 6 7 7 6 8 7 5 6 4 1 4 6 7 8 8 9 9 9 10 10 10 11 12 13 13 13 14 14 13
3 1 2 3 3 2 3 2 4 5 4 6 6 6 7 6 8 8 9 8 7 6 4 3 5 8 10 11 11 12 12 12 12 12 12 12 12 13 14 15 15 16 15
5 3 3 4 3 3 4 4 4 6 6 6 8 7 8 8 8 9 9 9 9 7 8 5 8 11 12 13 14 15 15 15 14 14 15 15 15 14 15 16 17 17 18
6 4 4 4 4 3 4 4 4 4 5 5 8 9 8 9 8 9 9 9 8 10 10 10 9 9 11 12 14 15 16 17 17 17 18 17 17 15 15 16 17 19 19
6 5 3 4 4 4 4 5 5 6 5 4 7 9 9 11 10 7 8 8 9 10 10 11 10 9 8 11 14 15 15 16 18 19 20 20 19 17 16 17 17 19 20
5 4 4 3 3 2 2 3 4 6 6 5 6 9 10 9 7 6 5 7 9 9 10 11 11 10 10 9 7 11 14 16 18 19 20 20 21 20 19 18 19 20 21
5 4 3 3 2 4 3 4 5 6 7 7 5 7 9 9 10 7 7 8 9 9 10 11 12 11 11 10 10 12 12 13 16 19 20 21 21 21 20 20 19 21 22
3 3 3 4 4 5 4 6 5 6 6 7 5 4 6 8 8 8 8 8 10 11 12 11 12 12 12 11 10 12 13 14 16 18 19 20 21 21 20 20 20 20 22
3 4 4 4 4 4 5 6 5 6 6 6 7 6 7 7 9 10 12 11 11 11 11 11 11 11 12 12 11 12 10 10 14 16 17 18 19 19 20 20 20 21 22
1 2 3 3 4 4 4 4 5 5 5 6 7 7 7 8 8 10 12 12 12 11 12 11 11 11 11 11 13 11 8 12 14 15 16 17 18 19 19 20 20 21 21
1 2 3 3 4 4 4 5 5 5 6 6 7 7 7 8 8 10 11 12 14 12 13 12 11 9 10 10 10 9 12 14 14 14 15 16 17 18 19 20 20 20 21
2 2 4 4 5 5 6 5 7 6 5 7 9 8 8 9 8 10 11 13 14 13 13 15 12 12 10 9 7 5 12 14 15 14 15 16 17 18 19 20 20 20 19
2 3 4 5 6 6 7 7 7 8 8 9 10 9 9 9 9 9 10 11 14 15 15 15 13 13 10 10 9 11 13 11 12 14 16 17 19 19 20 20 19 19 18
3 5 6 6 7 7 8 8 9 8 9 10 9 11 11 10 9 10 11 11 12 13 15 13 14 15 14 12 13 14 14 14 16 18 20 19 19 19 20 20 20 19 18
5 6 7 8 8 9 9 9 10 11 12 12 12 13 13 13 11 11 11 12 13 12 14 14 13 15 17 16 13 13 13 13 12 15 17 17 17 18 19 19 18 18 16
7 8 8 9 10 10 10 11 12 12 13 14 14 14 15 12 14 13 12 14 13 12 14 16 14 14 16 15 14 14 13 12 12 12 12 14 16 17 17 16 15 13 11
8 9 10 11 11 11 11 11 12 13 13 14 14 14 15 15 15 13 14 13 11 12 12 13 13 12 12 12 13 14 14 11 12 11 10 13 16 15 13 11 10 9 8
10 10 11 12 12 12 12 11 12 13 13 14 14 14 15 15 15 15 12 13 12 12 12 12 12 12 11 13 12 11 10 9 9 9 10 9 8 10 11 10 10 11 10
10 9 10 10 10 9 7 10 12 14 15 15 15 15 15 16 18 15 12 13 13 11 11 11 12 12 12 11 10 9 9 9 10 8 7 6 6 6 8 11 14 14 13
8 8 8 9 9 6 8 9 13 15 15 15 14 14 14 15 16 17 19 20 18 16 14 12 12 13 15 14 11 9 8 8 7 3 4 5 4 6 6 6 5 6 10
7 7 8 8 9 5 5 8 13 15 15 13 13 13 12 12 15 14 15 17 18 21 22 17 16 17 16 14 12 11 9 9 7 2 2 4 4 6 5 4 5 10 14
7 7 7 9 9 6 3 8 15 15 13 13 13 14 14 15 14 14 14 14 16 16 17 14 12 14 14 13 12 11 9 6 3 2 3 3 3 4 4 4 7 12 16
7 8 7 8 9 8 5 8 14 12 11 14 14 15 16 15 14 14 15 15 16 15 12 11 13 13 13 13 10 5 4 4 3 3 3 3 2 3 4 4 6 12 17
7 8 8 8 9 9 7 9 12 10 11 11 12 14 16 15 15 16 15 13 14 12 9 7 5 5 5 5 4 1 1 2 1 1 1 2 2 2 3 3 5 8 10
Wind_Direction
232 223 265 301 292 304 254 262 285 296 286 269 273 280 285 288 284 285 161 114 96 72 56 38 9 339 317 304 296 281 269 263 257 250 244 238 235 234 231 228 223 219 216
326 275 239 295 314 320 337 316 315 295 283 301 290 289 287 289 281 285 287 163 142 123 67 21 356 337 322 313 306 302 295 283 271 261 252 244 238 233 230 227 224 220 216
49 315 353 317 5 355 329 300 307 290 288 288 281 283 280 282 290 283 281 282 245 170 155 301 323 316 308 301 297 294 291 290 287 279 267 255 244 236 231 227 224 220 216
58 27 33 37 11 337 329 329 312 306 305 298 298 294 288 278 269 273 272 269 276 283 234 208 287 294 292 289 288 285 283 283 283 282 278 269 258 245 234 227 224 220 215
62 52 46 39 351 351 347 332 347 323 312 311 301 290 284 284 285 274 274 275 275 275 280 260 261 271 276 279 281 281 279 278 277 278 277 274 267 258 245 232 225 221 216
57 46 69 37 357 360 357 3 338 328 316 313 303 296 284 277 274 269 265 263 266 269 276 288 286 269 259 270 276 279 279 279 278 276 275 273 272 267 258 244 231 223 218
62 40 41 49 8 21 3 343 328 308 290 307 295 288 275 259 254 261 264 277 279 283 286 285 281 287 286 268 260 264 273 277 279 278 276 273 274 272 268 257 241 229 221
58 61 37 18 23 341 320 328 322 311 305 299 302 301 293 281 248 255 276 278 287 296 291 288 288 284 280 283 277 269 272 275 279 279 277 275 273 271 269 267 255 240 228
78 63 52 8 346 306 337 327 313 314 314 306 302 306 307 312 329 296 282 282 286 286 288 289 284 280 277 277 280 267 266 275 278 279 278 275 273 273 272 268 264 253 239
60 45 26 7 341 332 338 307 350 313 301 302 306 286 292 311 299 301 294 291 290 285 282 283 284 283 276 271 267 269 264 264 273 277 278 277 275 274 275 273 268 263 250
45 22 8 355 340 326 344 330 320 309 305 306 311 306 299 287 275 277 289 291 287 284 285 285 284 281 279 273 269 264 257 265 273 276 279 280 279 278 277 278 275 270 261
23 25 346 343 321 334 331 314 309 294 309 318 305 303 298 296 297 296 294 291 290 291 292 291 284 276 273 271 267 272 268 268 271 275 280 282 282 281 280 279 280 277 272
327 34 332 321 321 321 309 307 293 303 294 295 288 295 301 297 295 295 294 295 294 292 290 285 280 280 281 277 273 262 255 257 265 271 275 278 279 279 279 279 279 279 278
345 356 301 299 299 297 295 296 289 283 282 282 283 286 288 290 299 297 296 299 295 292 286 285 290 288 286 283 282 270 268 257 256 262 268 273 276 276 275 276 276 277 279
296 288 291 292 292 291 292 290 285 289 286 281 284 284 285 294 293 293 293 290 291 292 288 290 287 286 285 280 280 275 274 269 262 262 266 270 272 272 271 271 271 271 270
293 292 290 292 291 290 287 286 288 289 289 285 286 288 289 288 293 294 290 288 284 282 283 283 285 285 287 285 279 278 276 273 259 255 257 261 265 268 267 266 265 263 260
289 284 289 291 291 290 290 288 289 294 291 292 291 290 291 292 291 291 290 285 280 277 278 280 279 280 279 277 279 277 276 275 269 250 247 252 258 264 265 263 261 257 254
281 286 288 288 288 289 290 289 291 295 296 296 297 297 297 298 294 291 287 284 285 285 280 281 279 278 277 279 279 279 278 275 276 271 255 252 257 260 261 258 255 247 241
283 287 288 288 289 290 291 292 295 298 300 301 302 301 300 298 293 290 289 287 286 281 276 278 281 281 279 276 277 276 277 277 279 279 263 249 251 255 257 252 244 234 227
289 291 292 294 297 299 299 305 310 308 305 303 301 298 295 293 291 291 289 284 280 278 277 278 280 281 280 278 276 278 280 282 284 285 279 268 250 243 247 246 240 236 233
300 305 307 309 312 310 345 346 324 311 309 305 302 299 297 298 293 287 283 283 283 281 280 280 280 281 280 280 279 282 284 288 286 274 262 252 241 239 233 234 236 238 239
331 333 332 327 324 345 42 356 324 313 309 306 306 304 301 293 291 288 281 279 280 281 281 280 280 280 281 283 284 282 279 279 279 256 249 252 236 243 242 246 242 244 248
352 343 338 332 330 9 48 340 325 311 305 306 304 299 295 293 292 288 288 286 281 275 272 274 276 278 283 285 284 279 270 269 266 224 219 255 233 243 249 250 266 271 266
348 341 337 339 332 352 40 330 324 308 308 305 302 297 293 291 290 290 290 286 281 277 274 273 274 278 280 281 274 269 269 266 253 202 211 257 249 254 264 266 265 272 274
347 337 348 344 336 339 10 325 318 317 310 308 305 303 301 297 293 285 288 287 285 284 280 273 276 280 284 286 275 252 235 231 227 192 199 256 276 279 272 267 287 294 290
352 346 356 345 339 335 334 308 312 317 310 309 306 302 297 294 297 292 291 287 284 289 303 312 313 320 321 338 356 326 253 233 238 191 171 269 281 294 286 280 306 318 311